Weather in Jecheon

South Korea     37°07′48″N   128°12′22″E
temp.,
°C
wind,
m/s
gust,
m/s
humid.,
%
clouds,
%
prec.,
mm/h
press.,
hPa
HPBL,
m
25 february, thu
thu2500:00−2e1179100 0.0 102621
03:00−2ene1185100 0.0 102421
06:00−2e0189100 0.0 102521
09:00+2ene1173100 0.0 1024145
12:00+6sw1152100 0.1 1025506
15:00+5sw1153100 0.3 1022474
18:00+2ese1179100 0.1 102322
21:00+1nne1184100 0.1 102424
26 february, fri
fri2600:000ne1182100 0.0 102422
03:00−1ne1181100 0.0 102321
06:00−1ne1284100 0.0 102424
09:00+2ene3673100 0.0 1026449
12:00+6ene4850100 0.0 1025873
15:00+7e5753100 0.0 1024927
18:00+3ene3770100 0.0 1025414
21:00+1ene258167 0.0 1028137
27 february, sat
sat2700:00−1ne12860 0.0 103029
03:00−2ne12920 0.0 103026
06:00−2ene12920 0.0 103122
09:00+2e24670 0.0 1033512
12:00+7ese24470 0.0 1033999
15:00+8se33490 0.0 1031940
18:00+4sse22703 0.0 103149
21:000ese128742 0.0 103323
28 february, sun
sun2800:00−2e119176 0.0 103326
03:00−2e118860 0.0 103227
06:00−2e11834 0.0 103022
09:00+2ese12602 0.0 1030183
12:00+10ssw134233 0.0 1029645
15:00+10ssw234165 0.0 1027487
18:00+6wsw1151100 0.0 102622
21:00+5se1162100 0.0 102722
1 march, mon
mon100:00+4ne1187100 1.0 102628
03:00+4ene1196100 2.8 102548
06:00+4e1299100 2.9 102453
09:00+5e1299100 5.6 102349
12:00+5e1299100 3.9 102257
15:00+4ne3696100 12.3 1021373
18:00+1ene3897100 7.8 1021338
21:000ne3896100 14.5 1022431